Weather Roundup
Issued by NWS Chicago, IL

Home | Current Version | Previous Version | Graphics & Text | Print | Product List | Glossary On
Versions: 1 2 3 4 5 6 7 8 9 10 11 12 13 14 15 16 17 18 19 20 21 22 23 24 25 26 27 28 29 30 31 32 33 34 35 36 37 38 39 40 41 42 43 44 45 46 47 48 49 50
667
NZUS59 KLOT 251004
HRRLOT

CHICAGO AREA WEATHER ROUNDUP
NATIONAL WEATHER SERVICE CHICAGO/ROMEOVILLE IL
500 AM CDT THU AUG 25 2016

NOTE: "FAIR" INDICATES FEW OR NO CLOUDS BELOW 12,000 FEET WITH NO
SIGNIFICANT WEATHER AND/OR OBSTRUCTIONS TO VISIBILITY.

* THESE STATIONS ARE NOT UNDER NWS QUALITY CONTROL. THEY ALSO MAY NOT
  REPORT WEATHER SUCH AS PRECIPITATION OR FOG.

ILZ005-006-012>014-019>023-251100-
NORTHEAST ILLINOIS

CITY           SKY/WX    TMP DP  RH WIND       PRES   REMARKS
OHARE          CLOUDY    71  69  93 SW5       29.95F
MIDWAY         LGT RAIN  73  69  87 SW9       29.96F
AURORA         LGT RAIN  72  69  90 W3        29.95F
LANSING*       LGT RAIN  70  67  90 SW5       29.99F
JOLIET*        LGT RAIN  72  71  96 CALM      29.96F
WAUKEGAN       CLOUDY    70  69  97 CALM      29.95F
DUPAGE AIRPORT CLOUDY    71  68  90 S3        29.95F
WHEELING       CLOUDY    73  69  87 SW6       29.96F
KANKAKEE*      CLOUDY    71  69  96 S3        29.98F
MORRIS*        LGT RAIN  71  70  96 CALM      29.93F
LEWIS AIRPORT* LGT RAIN  71  68  92 CALM      29.95F
NORTHERLY ISL    N/A     73  68  84 S10         N/A
$$

WIZ051-052-058>065-066-070>072-251100-
SOUTHEAST WISCONSIN

CITY           SKY/WX    TMP DP  RH WIND       PRES   REMARKS
MILWAUKEE      CLOUDY    73  69  87 NW3       29.97R
KENOSHA*       LGT RAIN  69  68  96 S5        29.96F
RACINE*        LGT RAIN  72  70  93 N5        29.98R
BURLINGTON     LGT RAIN  68  68  98 CALM      29.97S
WAUKESHA       LGT RAIN  66  64  94 NE3       29.98F
$$

INZ001>003-010>013-019-020-251100-
NORTHWEST INDIANA

CITY           SKY/WX    TMP DP  RH WIND       PRES   REMARKS
GARY*          LGT RAIN  73  72  94 SW8       29.99S
MICHIGAN CITY* NOT AVBL
RENSSELAER*    NOT AVBL
VALPARAISO     CLOUDY    70  67  90 W8        30.00F
$$

LMZ740>746-251100-
SOUTHERN LAKE MICHIGAN

STATION/POSITION TIME  SKY/WX   TEMP WIND        PRES    VSBY
                                AIR  DIR/SP/G
                 (UTC)          (F)  (DEG/KT/KT) (MB)    (MI)
HARRISON CRIB    0900            75  220/ 12/ 13   N/A
BURNHAM HARBOR   1000            73  180/  6/ 11   N/A
CALUMET HARBOR   0900            72  190/  6/  8 1014.9R
BURNS HARBOR     0900            72  190/ 13/ 18 1015.9R
MICHIGAN CITY    0900            72  190/ 17/ 19   N/A
$$

ABBREVIATIONS USED IN REMARKS
   TC - TEMPERATURE IN CELSIUS
  WCI - WIND CHILL INDEX
   HX - HEAT INDEX
  VSB - VISIBILITY
$$




USA.gov is the U.S. government's official web portal to all federal, state and local government web resources and services.